Location: Unspecified
(43.4680°N, 87.1740°E)
Time: 14:16:59
(UTC+00:00)

Okean 2 - Pass Details

Date: 31 July 2021
Orbit: 558 x 577 km, 82.5° (Epoch: 18 September)

Event Time Altitude Azimuth Distance (km) Brightness Sun altitude
Rises 18:43:47 0° 9° (N) 2,802 8.2 -28.2°
Reaches altitude 10° 18:46:53 10° 34° (NE) 1,896 6.8 -28.1°
Maximum altitude 18:49:15 15° 69° (ENE) 1,612 6.0 -28.0°
Enters shadow 18:49:58 14° 81° (E) 1,639 5.9 -28.0°
